AWC2435 RJTT-ZSNJ

Flight info

Callsign AWC2435
Flight time 3h 22m
Altitude 38000
Route NINOX Y28 BIWWA V28 MIDER Y28 ISAKY Y592 POTET A593 LAMEN A593 AKARA A593 PK R343 ESBAG
Aircraft A21N/M-SDE2E3FGHIJ1RWXY/LB1

Departure

Time 2026-05-04 05:39
Airport Tokyo Haneda International Airport (RJTT)

Arrival

Time 2026-05-04 09:01
Airport Nanjing Lukou International Airport (ZSNJ)
Time Latitude Longitude Altitude Speed Heading
2026-05-04 05:17 35.55634 139.76173 25 ft 0 kts 305°
2026-05-04 05:29 35.55633 139.76173 25 ft 0 kts 305°
2026-05-04 05:29 35.55626 139.76186 24 ft 2 kts 306°
2026-05-04 05:29 35.55618 139.76201 23 ft 2 kts 306°
2026-05-04 05:31 35.55554 139.76303 17 ft 2 kts 342°
2026-05-04 05:31 35.55539 139.76305 18 ft 2 kts
2026-05-04 05:32 35.55525 139.76298 19 ft 2 kts 35°
2026-05-04 05:32 35.55513 139.76288 19 ft 2 kts 35°
2026-05-04 05:32 35.55501 139.76277 20 ft 2 kts 34°
2026-05-04 05:33 35.55476 139.76256 22 ft 2 kts 35°
2026-05-04 05:33 35.55469 139.76250 22 ft 0 kts 35°
2026-05-04 05:35 35.55485 139.76265 21 ft 6 kts 35°
2026-05-04 05:35 35.55539 139.76311 18 ft 11 kts 37°
2026-05-04 05:35 35.55606 139.76393 15 ft 15 kts 48°
2026-05-04 05:36 35.55680 139.76494 15 ft 16 kts 47°
2026-05-04 05:36 35.55757 139.76594 16 ft 15 kts 47°
2026-05-04 05:36 35.55836 139.76675 20 ft 13 kts 35°
2026-05-04 05:36 35.55909 139.76735 23 ft 11 kts 34°
2026-05-04 05:37 35.55972 139.76788 23 ft 0 kts 35°
2026-05-04 05:37 35.55980 139.76794 23 ft 2 kts 35°
2026-05-04 05:37 35.56004 139.76822 22 ft 4 kts 55°
2026-05-04 05:38 35.55976 139.76920 21 ft 6 kts 147°
2026-05-04 05:38 35.55877 139.76990 23 ft 47 kts 149°
2026-05-04 05:38 35.55351 139.77357 31 ft 123 kts 150°
2026-05-04 05:38 35.54436 139.78018 198 ft 168 kts 158°
2026-05-04 05:39 35.53410 139.78758 948 ft 174 kts 155°
2026-05-04 05:39 35.51451 139.80171 2570 ft 172 kts 162°
2026-05-04 05:39 35.50355 139.80924 3075 ft 189 kts 162°
2026-05-04 05:40 35.47841 139.82657 4054 ft 230 kts 160°
2026-05-04 05:40 35.46407 139.83658 4625 ft 249 kts 159°
2026-05-04 05:40 35.44844 139.84761 5232 ft 268 kts 159°
2026-05-04 05:41 35.43151 139.85709 5952 ft 269 kts 176°
2026-05-04 05:41 35.41355 139.85783 6874 ft 256 kts 199°
2026-05-04 05:41 35.39743 139.85101 7897 ft 246 kts 214°
2026-05-04 05:41 35.38360 139.83928 8892 ft 241 kts 227°
2026-05-04 05:42 35.37300 139.82402 9819 ft 239 kts 239°
2026-05-04 05:42 35.36599 139.80600 10762 ft 240 kts 250°
2026-05-04 05:42 35.36278 139.78542 11311 ft 259 kts 262°
2026-05-04 05:42 35.36420 139.76244 11742 ft 284 kts 274°
2026-05-04 05:43 35.37075 139.73868 12143 ft 314 kts 287°
2026-05-04 05:43 35.38363 139.71536 12456 ft 349 kts 301°
2026-05-04 05:43 35.40365 139.69588 12851 ft 385 kts 319°
2026-05-04 05:45 35.47938 139.51602 17263 ft 354 kts 273°
2026-05-04 05:45 35.48365 139.48616 17810 ft 354 kts 270°
2026-05-04 05:47 35.49411 139.26924 21011 ft 377 kts 265°
2026-05-04 05:47 35.49534 139.23711 21399 ft 381 kts 265°
2026-05-04 05:47 35.49664 139.20444 21823 ft 384 kts 265°
2026-05-04 05:48 35.49730 139.17189 22332 ft 382 kts 263°
2026-05-04 05:48 35.49675 139.13956 22770 ft 382 kts 261°
2026-05-04 05:48 35.49533 139.10686 23131 ft 385 kts 260°
2026-05-04 05:48 35.49379 139.07416 23494 ft 388 kts 259°
2026-05-04 05:49 35.49223 139.04149 23958 ft 388 kts 260°
2026-05-04 05:49 35.49064 139.00851 24617 ft 383 kts 260°
2026-05-04 05:49 35.48914 138.97620 25233 ft 380 kts 259°
2026-05-04 05:49 35.48761 138.94403 25677 ft 381 kts 259°
2026-05-04 05:51 35.47633 138.72121 29357 ft 369 kts 258°
2026-05-04 05:51 35.47473 138.69038 29859 ft 368 kts 259°
2026-05-04 05:52 35.47313 138.65887 30367 ft 366 kts 259°
2026-05-04 05:52 35.47154 138.62799 30939 ft 363 kts 258°
2026-05-04 05:52 35.46986 138.59715 31476 ft 360 kts 259°
2026-05-04 05:52 35.46830 138.56676 32014 ft 358 kts 259°
2026-05-04 05:53 35.46670 138.53642 32470 ft 356 kts 258°
2026-05-04 05:54 35.45558 138.33019 35726 ft 339 kts 258°
2026-05-04 05:55 35.45396 138.30142 36069 ft 338 kts 259°
2026-05-04 05:55 35.45238 138.27289 36382 ft 339 kts 258°
2026-05-04 05:55 35.45074 138.24412 36641 ft 339 kts 259°
2026-05-04 05:55 35.44915 138.21535 36891 ft 340 kts 258°
2026-05-04 05:56 35.44752 138.18623 37125 ft 341 kts 258°
2026-05-04 05:56 35.44593 138.15762 37326 ft 342 kts 259°
2026-05-04 05:56 35.44425 138.12843 37607 ft 341 kts 259°
2026-05-04 05:56 35.44266 138.09955 37692 ft 343 kts 258°
2026-05-04 05:57 35.43933 138.04120 37712 ft 341 kts 259°
2026-05-04 05:57 35.43608 137.98357 37710 ft 340 kts 258°
2026-05-04 05:58 35.43269 137.92586 37716 ft 340 kts 259°
2026-05-04 05:58 35.42927 137.86821 37714 ft 339 kts 258°
2026-05-04 05:59 35.42587 137.81050 37719 ft 338 kts 258°
2026-05-04 05:59 35.42222 137.75337 37712 ft 338 kts 257°
2026-05-04 06:00 35.41785 137.69641 37731 ft 336 kts 257°
2026-05-04 06:00 35.41352 137.63919 37746 ft 335 kts 258°
2026-05-04 06:01 35.40830 137.58298 37737 ft 333 kts 254°
2026-05-04 06:03 35.36458 137.36496 37752 ft 328 kts 250°
2026-05-04 06:05 35.31142 137.12262 37764 ft 326 kts 250°
2026-05-04 06:06 35.29966 137.06940 37767 ft 326 kts 251°
2026-05-04 06:06 35.28776 137.01561 37766 ft 326 kts 250°
2026-05-04 06:07 35.27583 136.96210 37759 ft 326 kts 250°
2026-05-04 06:07 35.26385 136.90840 37763 ft 325 kts 251°
2026-05-04 06:08 35.25196 136.85510 37768 ft 326 kts 250°
2026-05-04 06:08 35.23998 136.80177 37772 ft 325 kts 250°
2026-05-04 06:09 35.22800 136.74850 37769 ft 325 kts 251°
2026-05-04 06:11 35.17997 136.53593 37792 ft 323 kts 251°
2026-05-04 06:13 35.13177 136.32475 37793 ft 323 kts 250°
2026-05-04 06:14 35.08971 136.14055 37802 ft 323 kts 251°
2026-05-04 06:15 35.07775 136.08798 37811 ft 322 kts 251°
2026-05-04 06:15 35.06569 136.03557 37817 ft 322 kts 250°
2026-05-04 06:16 35.05363 135.98306 37809 ft 323 kts 251°
2026-05-04 06:16 35.04141 135.93062 37822 ft 321 kts 251°
2026-05-04 06:17 35.02929 135.87816 37809 ft 321 kts 250°
2026-05-04 06:17 35.01733 135.82577 37812 ft 321 kts 253°
2026-05-04 06:18 35.00750 135.77290 37805 ft 322 kts 254°
2026-05-04 06:20 34.96787 135.56059 37817 ft 321 kts 253°
2026-05-04 06:21 34.94306 135.42809 37824 ft 321 kts 252°
2026-05-04 06:22 34.93312 135.37526 37824 ft 320 kts 253°
2026-05-04 06:25 34.86097 135.00763 37837 ft 318 kts 252°
2026-05-04 06:26 34.85097 134.95508 37834 ft 318 kts 252°
2026-05-04 06:26 34.84120 134.90289 37836 ft 318 kts 253°
2026-05-04 06:27 34.81654 134.77130 37837 ft 319 kts 252°
2026-05-04 06:28 34.80656 134.71881 37842 ft 321 kts 253°
2026-05-04 06:28 34.79660 134.66620 37842 ft 320 kts 253°
2026-05-04 06:29 34.78657 134.61334 37850 ft 320 kts 253°
2026-05-04 06:29 34.77640 134.56071 37848 ft 320 kts 252°
2026-05-04 06:30 34.76623 134.50795 37847 ft 321 kts 252°
2026-05-04 06:30 34.75599 134.45550 37855 ft 321 kts 252°
2026-05-04 06:31 34.74589 134.40254 37853 ft 321 kts 253°
2026-05-04 06:31 34.73580 134.34966 37857 ft 322 kts 252°
2026-05-04 06:33 34.69514 134.13806 37864 ft 321 kts 252°
2026-05-04 06:34 34.68489 134.08479 37870 ft 323 kts 253°
2026-05-04 06:34 34.67413 134.03181 37879 ft 323 kts 250°
2026-05-04 06:36 34.61359 133.82770 37883 ft 323 kts 248°
2026-05-04 06:37 34.59793 133.77679 37887 ft 322 kts 248°
2026-05-04 06:37 34.58210 133.72589 37888 ft 321 kts 247°
2026-05-04 06:38 34.56645 133.67528 37890 ft 321 kts 247°
2026-05-04 06:40 34.50123 133.47350 37904 ft 323 kts 247°
2026-05-04 06:40 34.48456 133.42320 37913 ft 322 kts 248°
2026-05-04 06:41 34.46809 133.37277 37913 ft 322 kts 248°
2026-05-04 06:41 34.45217 133.32185 37915 ft 323 kts 247°
2026-05-04 06:42 34.43633 133.27116 37908 ft 322 kts 248°
2026-05-04 06:44 34.37261 133.06923 37925 ft 320 kts 248°
2026-05-04 06:44 34.35645 133.01866 37930 ft 320 kts 248°
2026-05-04 06:45 34.34039 132.96846 37931 ft 321 kts 248°
2026-05-04 06:45 34.32430 132.91814 37932 ft 322 kts 248°
2026-05-04 06:46 34.30822 132.86780 37934 ft 321 kts 248°
2026-05-04 06:46 34.29230 132.81737 37939 ft 323 kts 248°
2026-05-04 06:48 34.22815 132.61435 37943 ft 324 kts 247°
2026-05-04 06:50 34.16375 132.41141 37948 ft 323 kts 248°
2026-05-04 06:51 34.14769 132.36087 37946 ft 324 kts 249°
2026-05-04 06:51 34.13150 132.30994 37950 ft 324 kts 247°
2026-05-04 06:52 34.11535 132.25935 37951 ft 325 kts 247°
2026-05-04 06:52 34.09914 132.20850 37949 ft 326 kts 248°
2026-05-04 06:53 34.08327 132.15739 37953 ft 325 kts 250°
2026-05-04 06:53 34.07052 132.10500 37955 ft 327 kts 251°
2026-05-04 06:54 34.05851 132.05162 37952 ft 327 kts 251°
2026-05-04 06:54 34.04661 131.99873 37956 ft 327 kts 252°
2026-05-04 06:55 34.03483 131.94604 37958 ft 326 kts 252°
2026-05-04 06:55 34.02299 131.89329 37956 ft 328 kts 252°
2026-05-04 06:57 33.97532 131.68097 37964 ft 329 kts 251°
2026-05-04 06:58 33.96327 131.62755 37959 ft 331 kts 251°
2026-05-04 06:58 33.95122 131.57436 37965 ft 330 kts 251°
2026-05-04 06:59 33.93908 131.52100 37965 ft 331 kts 252°
2026-05-04 06:59 33.92699 131.46782 37968 ft 331 kts 252°
2026-05-04 07:01 33.87809 131.25391 37976 ft 332 kts 252°
2026-05-04 07:02 33.86585 131.20064 37972 ft 332 kts 251°
2026-05-04 07:02 33.85346 131.14699 37974 ft 333 kts 252°
2026-05-04 07:03 33.84116 131.09340 37975 ft 333 kts 252°
2026-05-04 07:03 33.82869 131.03954 37978 ft 333 kts 252°
2026-05-04 07:04 33.81627 130.98576 37977 ft 334 kts 252°
2026-05-04 07:04 33.80380 130.93211 37983 ft 334 kts 252°
2026-05-04 07:05 33.79131 130.87859 37984 ft 335 kts 251°
2026-05-04 07:05 33.77869 130.82439 37982 ft 336 kts 252°
2026-05-04 07:06 33.75981 130.74365 37985 ft 337 kts 252°
2026-05-04 07:07 33.74707 130.68944 37988 ft 336 kts 252°
2026-05-04 07:09 33.69575 130.47369 38008 ft 337 kts 250°
2026-05-04 07:09 33.67831 130.42142 38007 ft 336 kts 245°
2026-05-04 07:10 33.65725 130.37154 38007 ft 336 kts 243°
2026-05-04 07:12 33.54798 130.18770 38008 ft 340 kts 236°
2026-05-04 07:12 33.51928 130.14233 38011 ft 341 kts 236°
2026-05-04 07:13 33.49054 130.09714 38009 ft 341 kts 236°
2026-05-04 07:13 33.46195 130.05219 38009 ft 341 kts 236°
2026-05-04 07:14 33.38991 129.93932 38011 ft 341 kts 236°
2026-05-04 07:15 33.36118 129.89439 38015 ft 342 kts 236°
2026-05-04 07:15 33.33222 129.84915 38011 ft 343 kts 237°
2026-05-04 07:16 33.30343 129.80421 38013 ft 343 kts 236°
2026-05-04 07:16 33.27441 129.75903 38018 ft 343 kts 236°
2026-05-04 07:17 33.24552 129.71359 38018 ft 342 kts 237°
2026-05-04 07:17 33.21933 129.66653 38020 ft 342 kts 241°
2026-05-04 07:18 33.19620 129.61668 38025 ft 342 kts 245°
2026-05-04 07:18 33.17669 129.56511 38034 ft 342 kts 248°
2026-05-04 07:19 33.15863 129.51276 38035 ft 341 kts 248°
2026-05-04 07:19 33.14060 129.46053 38024 ft 342 kts 248°
2026-05-04 07:20 33.12264 129.40836 38024 ft 341 kts 248°
2026-05-04 07:20 33.10461 129.35597 38036 ft 341 kts 248°
2026-05-04 07:22 33.03255 129.14697 38051 ft 342 kts 248°
2026-05-04 07:23 33.01444 129.09451 38052 ft 342 kts 247°
2026-05-04 07:23 32.99637 129.04242 38055 ft 341 kts 248°
2026-05-04 07:24 32.97830 128.99051 38054 ft 341 kts 248°
2026-05-04 07:24 32.96027 128.93852 38056 ft 341 kts 249°
2026-05-04 07:26 32.88743 128.72983 38059 ft 342 kts 248°
2026-05-04 07:27 32.86918 128.67767 38061 ft 342 kts 248°
2026-05-04 07:27 32.85084 128.62546 38066 ft 343 kts 248°
2026-05-04 07:28 32.83247 128.57330 38060 ft 343 kts 248°
2026-05-04 07:28 32.81416 128.52125 38059 ft 343 kts 248°
2026-05-04 07:29 32.79562 128.46878 38052 ft 344 kts 249°
2026-05-04 07:29 32.77716 128.41653 38060 ft 344 kts 248°
2026-05-04 07:30 32.75876 128.36443 38063 ft 343 kts 248°
2026-05-04 07:30 32.74018 128.31213 38061 ft 344 kts 248°
2026-05-04 07:31 32.72168 128.26007 38063 ft 343 kts 247°
2026-05-04 07:33 32.64733 128.05144 38058 ft 344 kts 248°
2026-05-04 07:33 32.62868 127.99919 38063 ft 344 kts 248°
2026-05-04 07:34 32.60996 127.94704 38059 ft 345 kts 248°
2026-05-04 07:34 32.59121 127.89492 38069 ft 345 kts 248°
2026-05-04 07:35 32.57243 127.84255 38064 ft 346 kts 248°
2026-05-04 07:35 32.55359 127.79019 38065 ft 347 kts 248°
2026-05-04 07:36 32.53470 127.73781 38072 ft 346 kts 248°
2026-05-04 07:38 32.45902 127.52877 38069 ft 346 kts 248°
2026-05-04 07:38 32.43986 127.47614 38070 ft 348 kts 249°
2026-05-04 07:39 32.42089 127.42402 38074 ft 347 kts 248°
2026-05-04 07:39 32.40169 127.37135 38074 ft 348 kts 248°
2026-05-04 07:40 32.38260 127.31908 38074 ft 347 kts 248°
2026-05-04 07:40 32.36342 127.26672 38074 ft 348 kts 248°
2026-05-04 07:41 32.34431 127.21445 38076 ft 348 kts 248°
2026-05-04 07:41 32.32517 127.16241 38077 ft 348 kts 248°
2026-05-04 07:42 32.30582 127.10977 38074 ft 349 kts 248°
2026-05-04 07:42 32.28731 127.05690 38075 ft 348 kts 250°
2026-05-04 07:43 32.27251 127.00298 38079 ft 348 kts 253°
2026-05-04 07:43 32.26012 126.94778 38077 ft 348 kts 255°
2026-05-04 07:44 32.24785 126.89249 38079 ft 348 kts 255°
2026-05-04 07:44 32.23566 126.83751 38078 ft 349 kts 255°
2026-05-04 07:45 32.22338 126.78210 38077 ft 348 kts 255°
2026-05-04 07:45 32.21116 126.72709 38076 ft 349 kts 255°
2026-05-04 07:46 32.19888 126.67183 38080 ft 349 kts 255°
2026-05-04 07:46 32.18673 126.61627 38074 ft 349 kts 255°
2026-05-04 07:47 32.17480 126.56094 38079 ft 349 kts 255°
2026-05-04 07:49 32.12676 126.33942 38083 ft 350 kts 254°
2026-05-04 07:49 32.11465 126.28397 38079 ft 351 kts 255°
2026-05-04 07:50 32.10251 126.22839 38079 ft 350 kts 255°
2026-05-04 07:50 32.09034 126.17298 38079 ft 349 kts 255°
2026-05-04 07:51 32.07822 126.11785 38080 ft 350 kts 255°
2026-05-04 07:51 32.06595 126.06229 38080 ft 351 kts 255°
2026-05-04 07:52 32.05403 126.00687 38079 ft 351 kts 255°
2026-05-04 07:52 32.04211 125.95124 38080 ft 353 kts 256°
2026-05-04 07:54 31.99367 125.72772 38078 ft 353 kts 255°
2026-05-04 07:55 31.98127 125.67192 38078 ft 353 kts 255°
2026-05-04 07:55 31.96887 125.61608 38080 ft 353 kts 255°
2026-05-04 07:56 31.95647 125.56055 38081 ft 353 kts 255°
2026-05-04 07:56 31.94405 125.50471 38082 ft 353 kts 255°
2026-05-04 07:57 31.93161 125.44923 38079 ft 354 kts 255°
2026-05-04 07:57 31.91909 125.39329 38078 ft 353 kts 255°
2026-05-04 07:58 31.90649 125.33737 38088 ft 354 kts 255°
2026-05-04 07:58 31.89391 125.28153 38087 ft 354 kts 255°
2026-05-04 07:59 31.88135 125.22583 38074 ft 354 kts 255°
2026-05-04 07:59 31.86866 125.16991 38081 ft 354 kts 255°
2026-05-04 08:00 31.85603 125.11420 38085 ft 355 kts 255°
2026-05-04 08:02 31.80638 124.89055 38084 ft 355 kts 256°
2026-05-04 08:02 31.79423 124.83430 38076 ft 356 kts 255°
2026-05-04 08:03 31.78208 124.77844 38080 ft 355 kts 256°
2026-05-04 08:03 31.76990 124.72247 38072 ft 355 kts 256°
2026-05-04 08:04 31.75766 124.66625 38078 ft 355 kts 256°
2026-05-04 08:04 31.74546 124.61060 38082 ft 353 kts 256°
2026-05-04 08:05 31.73314 124.55450 38084 ft 354 kts 255°
2026-05-04 08:05 31.72091 124.49882 38073 ft 353 kts 255°
2026-05-04 08:06 31.70861 124.44302 38086 ft 353 kts 255°
2026-05-04 08:06 31.69634 124.38741 38077 ft 353 kts 255°
2026-05-04 08:08 31.64682 124.16435 38081 ft 354 kts 256°
2026-05-04 08:11 31.59126 123.91393 38088 ft 354 kts 256°
2026-05-04 08:11 31.57299 123.83045 38085 ft 354 kts 256°
2026-05-04 08:12 31.56076 123.77459 38086 ft 354 kts 256°
2026-05-04 08:12 31.54853 123.71915 38083 ft 354 kts 256°
2026-05-04 08:13 31.53619 123.66316 38085 ft 355 kts 256°
2026-05-04 08:13 31.52389 123.60754 38084 ft 355 kts 256°
2026-05-04 08:14 31.51151 123.55172 38083 ft 355 kts 256°
2026-05-04 08:16 31.46732 123.32715 38086 ft 355 kts 257°
2026-05-04 08:16 31.45657 123.27084 38081 ft 355 kts 257°
2026-05-04 08:17 31.44585 123.21458 38079 ft 355 kts 257°
2026-05-04 08:17 31.43508 123.15846 38081 ft 355 kts 257°
2026-05-04 08:19 31.39172 122.93350 38075 ft 355 kts 257°
2026-05-04 08:20 31.38075 122.87707 38075 ft 354 kts 257°
2026-05-04 08:20 31.36985 122.82101 38072 ft 355 kts 257°
2026-05-04 08:21 31.35893 122.76495 38071 ft 356 kts 257°
2026-05-04 08:21 31.34824 122.70847 38075 ft 356 kts 257°
2026-05-04 08:22 31.33755 122.65247 38069 ft 356 kts 258°
2026-05-04 08:24 31.29426 122.42658 38065 ft 358 kts 257°
2026-05-04 08:24 31.28361 122.37003 38065 ft 357 kts 257°
2026-05-04 08:25 31.27286 122.31300 38068 ft 357 kts 257°
2026-05-04 08:25 31.26225 122.25658 38066 ft 359 kts 257°
2026-05-04 08:27 31.21899 122.02919 38060 ft 360 kts 257°
2026-05-04 08:28 31.20803 121.97205 38060 ft 360 kts 257°
2026-05-04 08:28 31.19719 121.91547 38060 ft 360 kts 257°
2026-05-04 08:29 31.18817 121.85789 38064 ft 360 kts 262°
2026-05-04 08:31 31.21151 121.62440 38054 ft 369 kts 279°
2026-05-04 08:33 31.26796 121.39331 38055 ft 370 kts 280°
2026-05-04 08:35 31.33501 121.16441 38051 ft 373 kts 283°
2026-05-04 08:35 31.35263 121.10739 38044 ft 373 kts 283°
2026-05-04 08:37 31.40450 120.93707 37014 ft 368 kts 283°
2026-05-04 08:37 31.41305 120.90886 36783 ft 367 kts 282°
2026-05-04 08:37 31.42156 120.88075 36552 ft 366 kts 283°
2026-05-04 08:38 31.43010 120.85246 36325 ft 367 kts 283°
2026-05-04 08:38 31.43859 120.82430 36095 ft 368 kts 282°
2026-05-04 08:38 31.44707 120.79614 35867 ft 368 kts 283°
2026-05-04 08:40 31.50727 120.59583 32598 ft 378 kts 282°
2026-05-04 08:40 31.51592 120.56686 31824 ft 379 kts 282°
2026-05-04 08:40 31.52472 120.53742 31030 ft 380 kts 282°
2026-05-04 08:41 31.53340 120.50828 30223 ft 380 kts 282°
2026-05-04 08:41 31.54204 120.47929 29408 ft 382 kts 282°
2026-05-04 08:41 31.55077 120.44987 28590 ft 383 kts 283°
2026-05-04 08:41 31.55951 120.42036 27735 ft 386 kts 284°
2026-05-04 08:42 31.56830 120.39072 26848 ft 390 kts 284°
2026-05-04 08:42 31.57687 120.36056 25907 ft 393 kts 283°
2026-05-04 08:42 31.58373 120.32949 24916 ft 398 kts 280°
2026-05-04 08:42 31.58876 120.29736 23882 ft 403 kts 277°
2026-05-04 08:43 31.59176 120.26501 23125 ft 401 kts 274°
2026-05-04 08:43 31.59363 120.23237 22474 ft 398 kts 273°
2026-05-04 08:43 31.59534 120.20001 21807 ft 395 kts 273°
2026-05-04 08:43 31.59698 120.16802 21156 ft 392 kts 273°
2026-05-04 08:44 31.59854 120.13660 20513 ft 390 kts 274°
2026-05-04 08:44 31.60011 120.10464 19859 ft 387 kts 274°
2026-05-04 08:46 31.61043 119.88887 15340 ft 375 kts 275°
2026-05-04 08:46 31.61184 119.85847 14666 ft 373 kts 275°
2026-05-04 08:46 31.61326 119.82786 13988 ft 372 kts 275°
2026-05-04 08:46 31.61464 119.79785 13316 ft 371 kts 275°
2026-05-04 08:47 31.61603 119.76762 12638 ft 370 kts 275°
2026-05-04 08:47 31.61739 119.73785 12182 ft 361 kts 275°
2026-05-04 08:47 31.61868 119.70898 11759 ft 351 kts 275°
2026-05-04 08:47 31.62137 119.68089 11410 ft 338 kts 282°
2026-05-04 08:48 31.62697 119.65479 11143 ft 324 kts 290°
2026-05-04 08:48 31.63463 119.63035 10820 ft 313 kts 293°
2026-05-04 08:48 31.64243 119.60731 10629 ft 300 kts 294°
2026-05-04 08:48 31.65005 119.58501 10432 ft 288 kts 294°
2026-05-04 08:49 31.65732 119.56368 10252 ft 277 kts 294°
2026-05-04 08:50 31.69750 119.44483 8457 ft 255 kts 293°
2026-05-04 08:50 31.70396 119.42568 8117 ft 255 kts 293°
2026-05-04 08:51 31.71052 119.40617 7763 ft 254 kts 292°
2026-05-04 08:51 31.71697 119.38697 7408 ft 254 kts 292°
2026-05-04 08:51 31.72349 119.36755 7047 ft 254 kts 291°
2026-05-04 08:51 31.72993 119.34837 6694 ft 254 kts 291°
2026-05-04 08:52 31.73665 119.32831 6328 ft 254 kts 290°
2026-05-04 08:52 31.74314 119.30907 5976 ft 254 kts 291°
2026-05-04 08:52 31.74972 119.28959 5630 ft 254 kts 290°
2026-05-04 08:52 31.75623 119.27032 5287 ft 253 kts 290°
2026-05-04 08:53 31.76270 119.25118 4948 ft 253 kts 291°
2026-05-04 08:54 31.82287 119.14812 3762 ft 224 kts 327°
2026-05-04 08:55 31.83620 119.13866 3448 ft 225 kts 325°
2026-05-04 08:55 31.84636 119.12551 3314 ft 211 kts 291°
2026-05-04 08:55 31.84819 119.10883 3150 ft 210 kts 259°
2026-05-04 08:55 31.84347 119.09272 2987 ft 209 kts 243°
2026-05-04 08:57 31.79558 119.00159 2136 ft 139 kts 236°
2026-05-04 09:01 31.72754 118.87421 58 ft 115 kts 237°
2026-05-04 09:01 31.72400 118.86755 57 ft 70 kts 236°
2026-05-04 09:01 31.72295 118.86409 57 ft 16 kts 266°
2026-05-04 09:01 31.72314 118.86323 57 ft 8 kts 324°
2026-05-04 09:02 31.72368 118.86338 57 ft 9 kts 49°
2026-05-04 09:02 31.72407 118.86410 57 ft 11 kts 59°
2026-05-04 09:02 31.72450 118.86490 57 ft 12 kts 57°
2026-05-04 09:02 31.72497 118.86578 57 ft 13 kts 59°
2026-05-04 09:03 31.72537 118.86636 57 ft 7 kts 27°
2026-05-04 09:03 31.72589 118.86621 57 ft 8 kts 332°
2026-05-04 09:03 31.72645 118.86581 57 ft 10 kts 327°
2026-05-04 09:03 31.72709 118.86534 57 ft 11 kts 328°
2026-05-04 09:04 31.72781 118.86481 57 ft 12 kts 327°
2026-05-04 09:04 31.72858 118.86424 57 ft 13 kts 327°
2026-05-04 09:04 31.72941 118.86362 57 ft 14 kts 328°
2026-05-04 09:04 31.73029 118.86297 57 ft 15 kts 328°
2026-05-04 09:05 31.73121 118.86232 57 ft 15 kts 328°
2026-05-04 09:05 31.73217 118.86164 57 ft 16 kts 328°
2026-05-04 09:05 31.73315 118.86092 57 ft 16 kts 327°
2026-05-04 09:05 31.73416 118.86016 57 ft 17 kts 328°
2026-05-04 09:06 31.73519 118.85941 57 ft 17 kts 328°
2026-05-04 09:07 31.73836 118.86232 57 ft 13 kts 88°
2026-05-04 09:08 31.73839 118.86349 57 ft 14 kts 89°
2026-05-04 09:08 31.73850 118.86472 57 ft 15 kts 75°
2026-05-04 09:08 31.73879 118.86541 57 ft 6 kts 58°
2026-05-04 09:08 31.73884 118.86551 57 ft 0 kts 58°